Regional Weather Roundup
Issued by NWS

Home | Current Version | Previous Version | Text Only | Print | Product List | Glossary On
Versions: 1 2 3 4 5 6 7 8 9 10 11 12 13 14 15 16 17 18 19 20 21 22 23 24 25 26 27 28 29 30 31 32 33 34 35 36 37 38 39 40 41 42 43 44 45 46 47 48 49 50
218
ASUS43 KLMK 050702
RWRKY
KENTUCKY REGIONAL WEATHER ROUNDUP
NATIONAL WEATHER SERVICE LOUISVILLE KY
200 AM EST MON DEC 05 2016

NOTE "FAIR" INDICATES FEW OR NO CLOUDS BELOW 12,000 FEET
WITH NO SIGNIFICANT WEATHER AND/OR OBSTRUCTIONS TO VISIBILITY.

KYZ001>023-026-027-061>063-070>075-050800-
WESTERN AND SOUTH CENTRAL KENTUCKY

CITY           SKY/WX    TMP DP  RH WIND       PRES   REMARKS
PADUCAH        CLOUDY    41  37  86 CALM      30.06S
HENDERSON      CLOUDY    39  34  81 CALM      30.05S
OWENSBORO      CLOUDY    40  35  83 W5        30.07R
HOPKINSVILLE   CLOUDY    42  37  83 NW3       30.05S
BOWLING GREEN  CLOUDY    43  38  82 NW6       30.05F
GLASGOW        NOT AVBL
$$

KYZ024-025-028>034-038-045-046-053-050800-
NORTH CENTRAL KENTUCKY

CITY           SKY/WX    TMP DP  RH WIND       PRES   REMARKS
LOUISVILLE/SDF CLOUDY    42  36  79 W9        30.04R
LOUISVILLE/LOU CLOUDY    42  36  79 W9        30.04R
FORT KNOX      CLOUDY    40  36  86 W7        30.02R WCI  35
$$

KYZ035>037-039>044-047>052-055>060-089>105-050800-
NORTHEAST KENTUCKY

CITY           SKY/WX    TMP DP  RH WIND       PRES   REMARKS
LEXINGTON      LGT RAIN  44  41  89 W10       30.02R
COVINGTON      CLOUDY    40  36  86 W12       29.99R WCI  33
FRANKFORT      CLOUDY    43  38  82 SW9       30.01R
$$

KYZ054-064>069-076>088-106>120-050800-
SOUTHEAST KENTUCKY

CITY           SKY/WX    TMP DP  RH WIND       PRES   REMARKS
JACKSON        CLOUDY    46  43  89 VRB7      30.00R
LONDON         CLOUDY    46  44  93 W8        30.01S
SOMERSET       CLOUDY    45  43  93 NW7       30.04S
MIDDLESBORO    CLOUDY    46  46 100 CALM      30.02R FOG
MONTICELLO     CLOUDY    46  43  89 NW8       30.04S
$$





USA.gov is the U.S. government's official web portal to all federal, state and local government web resources and services.